Voltar ao catálogo

PEGASUS DEB

AtivoPO
NORAD 25442·DEBRIS·🇺🇸 United States

Lançado May 19, 1994 de Vandenberg Space Force Base

Loading…

Próximas Passagens (próximas 24 horas)

TLE

AtualizadoSource: Space-Track

Época: Sep 14, 2026, 08:58 UTC

1 25442U 94029ADX 26257.37403848  .00007717  00000-0  11108-2 0  9995
2 25442  81.7494 231.4778 0196205 347.6622  11.9809 14.63887880565374

Acompanhe PEGASUS DEB em tempo real com AllMySat

Download on the App Store